Location: Monroe
(41.9160°N, 83.3980°W)
Time: 14:42:49
(UTC-05:00)

ISS - All Passes

Search period start: 20 February 2018 00:00
Search period end: 02 March 2018 00:00
Orbit: 403 x 407 km, 51.6° (Epoch: 21 February)

Date Brightness Start Highest point End Pass type
(mag) Time Alt. Az. Time Alt. Az. Time Alt. Az.
20 Feb - 08:33:58 10° SSW 08:36:44 26° SE 08:39:32 10° ENE daylight
20 Feb - 10:10:01 10° W 10:13:07 40° NNW 10:16:14 10° NE daylight
20 Feb - 11:48:07 10° NW 11:50:15 16° N 11:52:24 10° NNE daylight
20 Feb - 13:25:20 10° NNW 13:27:40 18° NNE 13:30:00 10° ENE daylight
20 Feb - 15:01:26 10° NW 15:04:40 58° NNE 15:07:53 10° ESE daylight
20 Feb - 16:38:41 10° W 16:40:51 17° SW 16:43:00 10° S daylight
21 Feb - 07:42:56 10° SSE 07:44:44 14° SE 07:46:33 10° E daylight
21 Feb - 09:17:35 10° WSW 09:20:51 69° NNW 09:24:06 10° NE daylight
21 Feb - 10:55:22 10° WNW 10:57:47 19° NNW 11:00:12 10° NNE daylight
21 Feb - 12:33:07 10° NNW 12:35:12 16° N 12:37:17 10° NE daylight
21 Feb - 14:09:19 10° NW 14:12:23 35° NNE 14:15:25 10° E daylight
21 Feb - 15:45:53 10° WNW 15:48:49 31° SW 15:51:44 10° SSE daylight
22 Feb - 08:25:24 10° SW 08:28:38 64° SE 08:31:53 10° ENE daylight
22 Feb - 10:02:36 10° WNW 10:05:21 24° NNW 10:08:06 10° NE daylight
22 Feb - 11:40:42 10° NW 11:42:41 15° N 11:44:39 10° NE daylight
22 Feb - 13:17:14 10° NW 13:20:00 25° NNE 13:22:46 10° ENE daylight
22 Feb - 14:53:28 10° WNW 14:56:41 60° SW 14:59:54 10° SE daylight
23 Feb - 07:33:32 10° SSW 07:36:30 32° SE 07:39:29 10° ENE daylight
23 Feb - 09:09:56 10° W 09:12:57 34° NNW 09:16:00 10° NE daylight
23 Feb - 10:48:05 10° NW 10:50:10 15° N 10:52:13 10° NNE daylight
23 Feb - 12:25:07 10° NW 12:27:33 19° NNE 12:30:00 10° ENE daylight
23 Feb - 14:01:13 10° NW 14:04:28 72° NNE 14:07:44 10° ESE daylight
23 Feb - 15:38:55 10° W 15:40:33 13° SW 15:42:12 10° SSW daylight
24 Feb - 06:42:09 10° S 06:44:26 18° SE 06:46:42 10° E visible
24 Feb - 08:17:24 10° WSW 08:20:37 55° NNW 08:23:51 10° NE daylight
24 Feb - 09:55:19 10° WNW 09:57:39 18° NNW 09:59:57 10° NNE daylight
24 Feb - 11:32:53 10° NNW 11:35:03 16° N 11:37:13 10° NE daylight
24 Feb - 13:09:02 10° NW 13:12:10 41° NNE 13:15:18 10° E daylight
24 Feb - 14:45:48 10° WNW 14:48:31 24° SW 14:51:14 10° SSE daylight
25 Feb - 07:25:05 10° SW 07:28:21 81° SE 07:31:38 10° ENE daylight
25 Feb - 09:02:31 10° WNW 09:05:09 22° NNW 09:07:47 10° NE daylight
25 Feb - 10:40:31 10° NW 10:42:30 15° N 10:44:31 10° NE daylight
25 Feb - 12:16:54 10° NW 12:19:47 28° NNE 12:22:39 10° E daylight
25 Feb - 13:53:13 10° WNW 13:56:23 47° SW 13:59:31 10° SE daylight
26 Feb - 06:33:03 10° SSW 06:36:09 41° SE 06:39:15 10° ENE visible
26 Feb - 08:09:45 10° W 08:12:42 30° NNW 08:15:38 10° NE daylight
26 Feb - 09:47:56 10° NW 09:49:57 15° N 09:51:57 10° NE daylight
26 Feb - 11:24:45 10° NW 11:27:19 21° NNE 11:29:53 10° ENE daylight
26 Feb - 13:00:53 10° NW 13:04:10 89° ENE 13:07:25 10° SE daylight
26 Feb - 14:39:30 10° WSW 14:40:09 10° SW 14:40:47 10° SW daylight
27 Feb - 05:41:26 10° S 05:44:00 22° SE 05:46:36 10° E visible
27 Feb - 07:17:08 10° WSW 07:20:18 46° NNW 07:23:28 10° NE daylight
27 Feb - 08:55:10 10° NW 08:57:22 17° N 08:59:36 10° NNE daylight
27 Feb - 10:32:32 10° NNW 10:34:48 17° N 10:37:03 10° NE daylight
27 Feb - 12:08:39 10° NW 12:11:51 50° NNE 12:15:02 10° ESE daylight
27 Feb - 13:45:38 10° W 13:48:06 20° SW 13:50:32 10° S daylight
28 Feb - 04:50:42 10° SSE 04:51:56 12° SE 04:53:10 10° ESE visible
28 Feb - 06:24:41 10° WSW 06:27:58 82° NNW 06:31:14 10° NE visible
28 Feb - 08:02:19 10° WNW 08:04:50 20° NNW 08:07:22 10° NE daylight
28 Feb - 09:40:11 10° NW 09:42:13 15° N 09:44:15 10° NE daylight
28 Feb - 11:16:28 10° NW 11:19:27 31° NNE 11:22:25 10° E daylight
28 Feb - 12:52:54 10° WNW 12:55:57 37° SW 12:58:59 10° SSE daylight
01 Mar - 05:32:30 10° SW 05:35:41 52° SE 05:38:53 10° ENE visible
01 Mar - 07:09:29 10° W 07:12:20 26° NNW 07:15:10 10° NE daylight
01 Mar - 08:47:37 10° NW 08:49:37 15° N 08:51:37 10° NE daylight
01 Mar - 10:24:17 10° NW 10:26:58 23° NNE 10:29:38 10° ENE daylight
01 Mar - 12:00:27 10° WNW 12:03:44 73° SW 12:06:58 10° SE daylight
